Location: Little Ridge
(33.0629°N, 96.4547°W)
Time: 08:03:31
(UTC+00:00)

Cosmos 1515 Rocket - Pass Details

Date: 08 December 2021
Orbit: 605 x 631 km, 82.5° (Epoch: 17 January)

Event Time Altitude Azimuth Distance (km) Brightness Sun altitude
Exits shadow 12:10:54 - 346° (NNW) 2,526 6.4 -13.6°
Reaches altitude 10° 12:12:19 10° 343° (NNW) 1,963 5.8 -13.3°
Maximum altitude 12:16:32 52° 267° (W) 754 3.6 -12.4°
Drops below altitude 10° 12:20:42 10° 191° (S) 1,944 6.2 -11.6°
Sets 12:22:56 0° 186° (S) 2,843 7.1 -11.2°
